Probability
0 0 0 0 0 0 0 0 0 0 0 0 0 0 1 2 3 3 3 1 0 0 0 0 0 0 1 3 4 4 2 0 0 0 0 0 0 1 2 3 3 2 1 0
0 0 0 0 0 0 0 0 0 0 0 0 0 0 1 2 3 3 3 2 1 0 0 0 0 0 1 2 4 4 3 1 1 0 0 0 0 0 2 3 3 2 1 0
0 0 0 0 0 0 0 0 0 0 0 0 0 0 1 2 2 3 3 2 1 0 0 0 0 0 0 1 3 3 2 2 1 1 0 0 0 0 1 2 2 1 0 0
0 0 0 0 0 0 0 0 0 0 0 0 0 0 0 1 1 1 2 2 1 0 0 0 0 0 0 0 1 1 1 1 1 1 0 0 0 0 1 1 1 0 0 0
0 0 0 0 0 0 0 0 0 0 0 0 0 0 0 0 0 0 1 2 2 1 0 0 0 0 0 0 0 0 0 0 0 0 0 0 0 0 0 0 0 0 0 0
0 0 0 0 0 0 0 0 0 0 0 0 0 0 0 0 0 0 0 1 2 2 1 0 1 1 0 1 1 0 0 0 0 0 0 0 0 0 0 0 0 0 0 0
0 0 0 0 0 0 0 0 0 0 0 0 0 0 0 0 0 0 0 0 1 2 2 2 2 2 2 2 2 1 0 0 0 0 0 0 0 0 0 0 0 0 0 0
0 0 0 0 0 0 0 0 0 0 0 0 0 0 0 0 0 0 0 0 0 1 2 3 3 3 3 3 3 1 0 0 0 0 0 0 0 0 0 0 0 0 0 0
0 0 0 0 0 0 0 0 0 0 0 0 0 0 0 0 0 0 0 0 0 0 1 2 3 3 3 3 3 2 1 0 0 0 0 0 0 0 0 0 0 0 0 0
0 0 0 0 0 0 0 0 0 0 0 0 0 0 0 0 0 0 0 0 0 0 0 1 2 3 3 3 3 2 1 0 0 0 0 0 0 0 0 0 0 0 0 0
0 0 0 0 0 0 0 0 0 0 0 0 0 0 0 0 0 0 0 0 0 0 0 0 1 3 3 3 3 2 1 0 0 0 0 0 0 0 0 0 0 0 0 0
0 0 0 0 0 0 0 0 0 0 0 0 0 0 0 0 0 0 0 0 0 0 0 0 1 2 3 3 2 1 0 0 0 0 0 0 0 0 0 0 0 0 0 0
0 0 0 0 0 0 0 0 0 0 0 0 0 0 0 0 0 0 0 0 0 0 0 0 1 2 3 2 1 0 0 0 0 0 0 0 0 0 0 0 0 0 0 0
0 0 0 0 0 0 0 0 0 0 0 0 0 0 0 0 0 0 0 0 0 0 0 0 1 1 1 1 0 0 0 0 0 0 0 0 0 0 0 0 0 0 0 0
0 0 0 0 0 0 0 0 0 0 0 0 0 0 0 0 0 0 0 0 0 0 0 0 0 0 0 0 0 0 0 0 0 0 0 0 0 0 0 0 0 0 0 0
0 0 0 0 0 0 0 0 0 0 0 0 0 0 0 0 0 0 0 0 0 0 0 0 0 0 0 0 0 0 0 0 0 0 0 0 0 0 0 0 0 0 0 0
0 0 0 0 0 0 0 0 0 0 0 0 0 0 0 0 0 0 0 0 0 0 0 0 0 0 0 0 0 0 0 0 0 0 0 0 0 0 0 0 0 0 0 0
0 0 0 0 0 0 0 0 0 0 0 0 0 0 0 0 0 0 0 0 0 0 0 0 0 0 0 0 0 0 0 0 0 0 0 0 0 0 0 0 0 0 0 0
0 0 0 0 0 0 0 0 0 0 0 0 0 0 0 0 0 0 0 0 0 0 0 0 0 0 0 0 0 0 0 0 0 0 0 0 0 0 0 0 0 0 0 0
0 0 0 0 0 0 0 0 0 0 0 0 0 0 0 0 0 0 0 0 0 0 0 0 0 0 0 0 0 0 0 0 0 0 0 0 0 0 0 0 0 0 0 0
0 0 0 0 0 0 0 0 0 0 0 0 0 0 0 0 0 0 0 0 0 0 0 0 0 0 0 0 0 0 0 0 0 0 0 0 0 0 0 0 0 0 0 0
0 0 0 0 0 0 0 0 0 0 0 0 0 0 0 0 0 0 0 0 0 0 0 0 0 0 0 0 0 0 0 0 0 0 0 0 0 0 0 0 0 0 0 0
0 0 0 0 0 0 0 0 0 0 0 0 0 0 0 0 0 0 0 0 0 0 0 0 0 0 0 0 0 0 0 0 0 0 0 0 0 0 0 0 0 0 0 0
0 0 0 0 0 0 0 0 0 0 0 0 0 0 0 0 0 0 0 0 0 0 0 0 0 0 0 0 0 0 0 0 0 0 0 0 0 0 0 0 0 0 0 0
0 0 0 0 0 0 0 0 0 0 0 0 0 0 0 0 0 0 0 0 0 0 0 0 0 0 0 0 0 0 0 0 0 0 0 0 0 0 0 0 0 0 0 0
0 0 0 0 0 0 0 0 0 0 0 0 0 0 0 0 0 0 0 0 0 0 0 0 0 0 0 0 0 0 0 0 0 0 0 0 0 0 0 0 0 0 0 0
Wind_Speed
3 3 4 4 6 6 5 5 6 5 2 3 7 10 8 4 5 5 5 4 4 3 3 3 3 4 4 3 3 3 3 3 3 3 2 2 2 2 2 1 2 2 2 2
3 5 5 4 3 5 6 8 7 4 1 3 6 11 9 6 7 6 6 5 3 2 2 3 3 3 3 3 3 3 3 3 2 2 2 2 2 2 2 2 2 2 2 2
5 1 2 4 4 5 7 7 6 4 4 5 6 8 6 4 4 3 3 2 2 1 3 3 3 3 3 2 3 2 2 3 3 2 2 2 2 1 1 2 2 2 2 2
4 3 3 2 4 5 6 2 3 3 2 3 2 6 4 4 3 4 3 2 1 1 2 2 3 3 2 2 2 2 2 2 2 2 3 3 2 2 2 2 2 2 2 2
2 0 2 3 3 3 2 3 3 4 4 4 4 5 6 3 4 4 3 2 1 1 1 2 2 2 2 2 2 2 2 2 2 2 2 2 2 2 2 2 3 2 2 2
2 0 1 2 2 1 1 1 2 3 2 5 6 5 7 3 3 2 3 2 2 2 2 2 3 3 3 3 2 2 2 2 2 1 1 2 2 2 3 3 2 2 1 1
3 3 1 1 0 2 1 1 0 1 3 6 4 5 7 0 2 3 4 3 2 2 2 2 3 3 3 2 2 2 2 2 1 1 1 1 2 3 3 3 2 2 1 1
3 3 4 2 2 2 4 3 3 3 3 3 1 6 4 1 3 3 3 3 2 2 1 1 2 2 2 2 2 1 2 2 2 1 1 1 1 1 2 2 2 2 1 1
3 3 2 2 1 0 2 4 2 2 2 3 5 5 3 2 2 2 2 2 1 1 1 1 1 2 1 1 1 1 1 1 2 1 1 1 1 1 1 2 2 1 1 1
1 2 1 2 0 2 2 1 1 2 3 5 6 5 4 2 2 1 1 1 0 1 1 1 1 1 1 1 1 1 1 1 1 1 1 1 1 1 1 1 2 1 1 1
1 2 1 2 5 5 4 3 3 3 3 3 4 5 1 3 3 3 2 0 1 1 1 1 1 1 1 1 1 1 0 0 0 1 1 1 1 0 1 1 1 1 1 1
3 2 3 4 1 1 2 4 5 4 5 4 4 7 1 3 3 2 0 0 1 1 1 1 1 2 2 2 1 1 1 1 1 1 1 1 1 1 1 1 1 1 1 1
4 3 1 2 1 0 2 3 3 2 1 4 5 8 0 1 1 1 0 0 0 0 0 1 1 1 1 2 2 1 1 1 1 1 1 2 1 1 1 1 1 1 1 1
3 3 6 7 3 3 4 5 5 5 5 6 10 10 7 5 3 2 1 1 1 1 1 1 1 1 1 1 2 2 1 1 1 1 2 2 2 2 2 1 1 1 1 1
3 5 5 7 6 4 7 8 9 11 11 9 10 10 11 6 4 4 2 2 2 2 2 2 2 2 2 1 1 1 2 1 1 1 2 2 2 2 1 1 1 1 1 1
3 4 3 6 6 7 10 12 13 14 13 14 13 15 10 7 4 3 3 2 3 3 4 3 3 2 2 2 2 1 2 2 1 2 2 2 2 2 2 1 1 1 1 1
4 4 3 5 2 3 11 13 14 11 11 10 14 13 5 5 5 5 4 4 5 5 4 4 3 3 2 2 1 2 2 1 2 2 2 2 2 2 2 2 1 2 1 1
6 5 3 2 1 10 9 4 9 10 11 11 10 7 6 6 5 5 3 4 5 4 4 3 3 2 2 1 1 1 1 1 1 1 1 1 2 2 2 2 2 2 1 1
5 6 4 3 6 10 5 5 6 7 9 10 12 10 7 4 4 5 3 3 4 4 3 3 2 2 1 1 1 0 1 1 1 1 1 1 2 2 2 2 2 1 1 1
3 4 5 5 6 9 5 3 3 3 7 6 8 8 6 2 4 5 1 1 2 1 1 1 1 1 1 1 1 1 1 1 2 2 2 1 2 2 2 2 2 1 1 1
5 6 8 8 8 10 4 4 6 5 7 2 4 5 5 6 6 3 0 0 0 1 1 1 1 1 2 1 1 2 2 2 2 1 1 1 1 2 2 1 1 1 1 0
11 9 9 7 8 12 5 8 9 7 1 2 2 4 4 4 3 2 1 2 1 1 1 1 1 1 1 1 2 2 3 2 0 0 0 0 1 1 1 1 1 1 1 1
10 10 8 10 10 3 7 7 5 2 2 2 2 2 3 3 4 3 3 2 2 1 1 1 1 1 1 1 2 3 2 0 1 1 1 1 0 0 1 2 2 1 1 1
5 3 4 6 8 5 4 4 4 3 4 3 2 2 2 4 4 3 3 2 2 2 1 1 2 2 2 1 1 1 1 1 1 2 1 1 1 1 1 1 1 2 2 2
6 6 5 8 6 4 5 6 6 5 4 3 3 2 3 3 4 4 3 3 2 2 1 1 2 2 2 1 1 1 1 2 2 2 1 1 1 2 1 1 2 2 2 3
6 7 8 9 6 6 6 5 5 5 5 5 4 3 3 4 4 3 3 3 2 2 2 2 2 2 2 2 2 1 1 2 3 2 2 2 1 1 1 1 1 2 3 4
Wind_Direction
193 215 216 221 228 261 291 275 271 271 220 237 248 263 262 225 226 235 236 231 220 219 196 170 157 146 137 135 141 153 151 156 154 160 165 163 163 141 115 93 93 102 97 88
203 233 245 266 257 256 268 274 277 290 329 276 274 271 265 231 223 224 225 226 215 204 180 156 134 129 136 147 155 153 157 160 162 165 161 148 139 129 124 119 102 92 96 94
222 266 261 243 258 259 253 258 273 287 311 274 284 279 238 226 218 224 224 216 199 171 164 150 140 141 138 151 155 156 167 159 164 152 126 115 107 109 131 147 139 117 105 105
252 271 299 259 250 256 259 294 297 302 295 270 244 286 247 210 204 215 216 193 173 181 145 140 140 137 147 152 137 138 144 135 145 137 140 149 158 168 180 164 145 138 130 120
242 158 265 260 271 265 279 346 301 277 262 276 238 257 277 186 228 221 199 179 150 108 122 139 137 132 111 103 112 123 123 115 115 128 142 160 154 142 128 120 133 136 136 132
245 355 302 286 301 256 292 317 277 261 244 258 216 218 276 208 214 180 164 157 133 114 101 98 103 99 86 80 86 104 109 100 106 131 140 147 141 128 127 125 132 136 134 139
229 198 168 342 260 192 212 139 293 251 225 245 180 211 256 350 95 118 143 149 132 119 117 112 105 112 110 101 91 102 118 113 105 115 124 132 140 146 150 149 151 144 138 144
231 229 177 188 202 206 216 203 192 230 247 283 208 232 249 94 70 69 88 100 100 118 124 119 119 119 126 126 124 124 131 127 128 133 116 107 137 163 165 153 148 163 172 165
226 238 115 131 358 286 209 221 249 298 303 280 250 248 264 85 56 63 70 81 110 127 138 142 119 112 113 123 136 153 151 137 147 154 139 136 153 154 154 148 141 149 134 133
276 252 174 120 352 276 284 284 155 196 229 251 257 239 238 199 216 191 174 196 156 104 103 128 134 133 127 131 100 89 128 159 161 152 166 167 170 150 134 138 141 135 127 120
233 197 206 172 204 203 183 201 216 221 235 237 267 265 182 152 163 174 192 174 125 122 126 126 134 133 125 105 111 108 100 67 167 169 169 157 156 126 130 142 152 155 146 154
202 195 236 220 161 11 214 209 188 197 234 229 257 267 37 114 110 99 135 201 187 158 144 121 138 129 134 141 147 163 176 194 227 195 157 156 146 125 145 188 181 146 156 175
164 170 218 262 254 304 251 242 220 213 242 230 233 258 177 66 45 65 13 306 191 156 97 64 100 144 167 169 175 193 205 216 231 190 160 159 165 166 184 205 208 174 169 193
165 195 206 221 233 183 222 224 208 193 219 237 236 258 280 294 304 307 288 259 236 219 217 208 226 225 212 197 189 192 214 214 218 197 181 183 187 191 191 192 196 204 188 200
175 218 230 254 274 255 243 232 215 216 223 233 250 256 266 271 273 271 262 252 260 261 252 239 237 240 230 220 209 204 214 215 204 202 199 206 194 183 177 179 189 215 206 215
193 217 226 255 248 256 261 246 230 232 235 242 259 266 264 267 271 272 268 258 253 254 251 248 245 241 236 228 229 230 233 235 202 206 214 204 181 171 183 194 188 204 217 228
185 180 199 248 245 286 258 230 218 221 220 219 238 250 263 269 265 260 261 258 255 254 247 241 242 241 244 236 225 229 245 245 218 216 211 188 176 182 190 189 189 205 215 221
181 185 204 244 225 241 239 191 199 217 232 223 239 253 248 249 257 256 243 243 257 258 249 238 235 243 244 244 230 236 241 226 223 205 199 172 170 190 188 187 200 219 223 217
199 192 208 206 240 264 257 209 189 207 247 225 232 244 252 268 296 265 231 231 243 252 241 224 213 222 221 205 185 179 239 220 199 197 208 198 184 190 194 203 212 217 209 223
203 200 213 213 229 243 239 177 154 150 261 238 217 228 235 220 251 258 237 241 258 273 238 199 174 157 188 205 152 179 221 212 213 215 219 211 188 183 200 215 219 215 214 222
177 201 216 223 237 255 234 158 134 187 244 230 196 204 204 210 228 249 322 220 203 246 207 146 144 172 198 175 161 193 206 228 240 231 215 200 185 189 200 207 223 201 207 212
182 186 200 201 226 246 177 155 189 217 204 198 206 203 210 228 244 257 256 245 233 216 156 140 157 197 180 156 175 205 218 234 41 129 166 202 205 190 179 177 197 204 181 197
201 198 194 201 218 221 166 191 213 205 224 239 235 231 211 232 245 249 248 244 232 212 196 152 161 205 209 171 186 210 228 141 122 146 184 205 225 206 188 182 189 197 184 198
223 207 216 240 245 236 220 229 247 244 237 253 251 235 219 235 242 245 243 246 244 224 198 159 163 199 231 211 202 214 206 131 145 177 200 199 191 203 204 206 201 200 206 209
204 181 213 245 259 281 254 229 232 242 243 251 253 238 230 229 243 238 240 242 234 231 223 190 198 219 231 211 208 194 157 147 165 193 204 208 204 197 208 220 218 225 230 222
204 194 202 229 213 212 237 217 215 226 236 233 232 245 239 223 237 238 240 236 227 224 214 211 216 223 226 203 209 203 188 176 172 193 204 201 202 200 202 209 305 287 269 270